FW6636 Weather Reports


time (UTC)temp
C
wind
direction
speed
KPH
gust
KPH
rain 1hr
cm
rain 24hr
cm
rain mn
cm
humidity
%
barometer
mb
20260510132053 15 209 6.4 14.5 0.00 0.61 0.00 83 1013.0
20260510131555 15 206 6.4 14.5 0.00 0.61 0.00 86 1012.9
20260510131052 14 190 6.4 14.5 0.00 0.61 0.00 86 1012.8
20260510130552 14 176 8.0 14.5 0.00 0.61 0.00 86 1012.8
20260510130105 13 227 8.0 14.5 0.00 0.61 0.00 88 1012.8
20260510125553 13 195 6.4 12.9 0.00 0.61 0.00 88 1012.8
20260510125052 13 216 4.8 14.5 0.00 0.61 0.00 89 1013.0
20260510124554 13 191 6.4 14.5 0.00 0.61 0.00 91 1013.1
20260510124052 13 179 3.2 9.7 0.00 0.61 0.00 92 1012.9
20260510123551 12 200 1.6 9.7 0.00 0.61 0.00 93 1013.0
20260510123058 12 177 3.2 11.3 0.00 0.61 0.00 93 1013.0
20260510122554 12 167 3.2 11.3 0.00 0.61 0.00 93 1013.1
20260510122052 12 189 1.6 9.7 0.00 0.61 0.00 94 1013.1
20260510121557 11 211 3.2 8.0 0.00 0.61 0.00 94 1013.0
20260510121049 11 192 1.6 6.4 0.00 0.61 0.00 94 1012.8
20260510120553 11 183 1.6 6.4 0.00 0.61 0.00 94 1012.8
20260510120057 11 0 0.0 6.4 0.00 0.61 0.00 94 1012.8
20260510115552 11 0 1.6 8.0 0.00 0.61 0.00 94 1012.7
20260510115052 11 272 3.2 8.0 0.00 0.61 0.00 94 1012.7
20260510114554 11 303 0.0 4.8 0.00 0.61 0.00 94 1012.4
20260510114053 11 0 0.0 0.0 0.00 0.61 0.00 94 1012.4
20260510113552 10 0 0.0 0.0 0.00 0.61 0.00 94 1012.4
20260510113107 10 0 0.0 0.0 0.00 0.61 0.00 94 1012.3
20260510112552 10 0 0.0 0.0 0.00 0.61 0.00 94 1012.3
20260510112055 10 0 0.0 0.0 0.00 0.61 0.00 94 1012.2
20260510111551 10 0 0.0 0.0 0.00 0.61 0.00 94 1012.1
20260510111051 10 0 0.0 0.0 0.00 0.61 0.00 94 1012.0
20260510110552 10 0 0.0 0.0 0.00 0.61 0.00 94 1011.9
20260510110051 10 0 0.0 0.0 0.00 0.61 0.00 94 1012.0
20260510105549 10 0 0.0 0.0 0.00 0.61 0.00 94 1011.8
20260510105052 10 0 0.0 0.0 0.00 0.61 0.00 94 1011.8
20260510104558 10 0 0.0 0.0 0.00 0.61 0.00 94 1011.7
20260510104053 9 0 0.0 0.0 0.00 0.61 0.00 94 1011.8
20260510103552 10 0 0.0 0.0 0.00 0.61 0.00 94 1011.6
20260510103056 9 0 0.0 0.0 0.00 0.61 0.00 94 1011.5
20260510102552 9 0 0.0 0.0 0.00 0.61 0.00 94 1011.4
20260510102050 9 0 0.0 0.0 0.00 0.61 0.00 94 1011.3
20260510101558 9 0 0.0 0.0 0.00 0.61 0.00 94 1011.3
20260510101052 9 0 0.0 0.0 0.00 0.61 0.00 94 1011.3
20260510100552 9 0 0.0 0.0 0.00 0.61 0.00 94 1011.3
20260510100104 9 0 0.0 0.0 0.00 0.61 0.00 94 1011.4
20260510095552 9 0 0.0 0.0 0.00 0.61 0.00 94 1011.4
20260510095052 9 0 0.0 0.0 0.00 0.61 0.00 94 1011.4
20260510094556 9 0 0.0 0.0 0.00 0.61 0.00 94 1011.4
20260510094052 9 0 0.0 0.0 0.00 0.61 0.00 94 1011.5
20260510093549 9 0 0.0 0.0 0.00 0.61 0.00 94 1011.4
20260510093052 9 0 0.0 4.8 0.00 0.61 0.00 94 1011.4
20260510092549 9 0 0.0 4.8 0.00 0.61 0.00 94 1011.2
20260510092049 9 311 1.6 6.4 0.00 0.61 0.00 94 1011.4
20260510091557 9 309 3.2 6.4 0.00 0.61 0.00 94 1011.3
20260510091052 8 276 0.0 0.0 0.00 0.61 0.00 94 1011.2
20260510090549 8 0 0.0 0.0 0.00 0.61 0.00 93 1011.1
20260510090110 8 0 0.0 0.0 0.00 0.61 0.00 93 1011.0
20260510085556 8 0 0.0 0.0 0.00 0.61 0.00 94 1011.0
20260510085052 8 0 0.0 0.0 0.00 0.61 0.00 94 1011.1
20260510084552 8 0 0.0 0.0 0.00 0.61 0.00 94 1011.0
20260510084052 9 0 0.0 0.0 0.00 0.61 0.00 93 1011.0
20260510083552 9 0 0.0 0.0 0.00 0.61 0.00 93 1011.1
20260510083054 9 0 0.0 0.0 0.00 0.61 0.00 94 1011.0
20260510082552 9 0 0.0 0.0 0.00 0.61 0.00 94 1010.9
20260510082049 9 0 0.0 0.0 0.00 0.61 0.00 94 1010.9
20260510081557 9 0 0.0 0.0 0.00 0.61 0.00 94 1010.8
20260510081053 9 0 0.0 0.0 0.00 0.61 0.00 94 1010.7
20260510080552 9 0 0.0 0.0 0.00 0.61 0.00 94 1010.8
20260510075552 9 0 0.0 0.0 0.00 0.61 0.00 94 1010.8
20260510075049 9 0 0.0 0.0 0.00 0.61 0.00 94 1010.9
20260510074553 9 0 0.0 0.0 0.00 0.61 0.00 93 1011.0
20260510074051 9 0 0.0 0.0 0.00 0.61 0.00 93 1011.0
20260510073552 9 0 0.0 0.0 0.00 0.61 0.00 93 1010.9
20260510073113 9 0 0.0 0.0 0.00 0.61 0.00 94 1011.0
20260510072553 9 0 0.0 0.0 0.00 0.61 0.00 94 1011.1
20260510072053 9 0 0.0 0.0 0.00 0.61 0.00 93 1011.2
20260510071556 9 0 0.0 0.0 0.00 0.61 0.00 93 1011.3
20260510071052 9 0 0.0 0.0 0.00 0.61 0.00 93 1011.4
20260510070552 9 0 0.0 0.0 0.00 0.61 0.00 93 1011.4
20260510070059 9 0 0.0 0.0 0.00 0.61 0.00 94 1011.5
20260510065552 10 0 0.0 0.0 0.00 0.61 0.00 94 1011.6
20260510065051 9 0 0.0 4.8 0.00 0.61 0.00 94 1011.6
20260510064628 9 0 0.0 4.8 0.00 0.61 0.00 93 1011.6
20260510064051 9 281 1.6 9.7 0.00 0.61 0.00 94 1011.6
20260510063553 9 0 0.0 20.9 0.00 0.61 0.00 93 1011.5
20260510063056 8 303 3.2 20.9 0.00 0.61 0.00 93 1011.8
20260510062548 9 287 4.8 16.1 0.00 0.61 0.00 93 1011.8
20260510062051 9 0 0.0 0.0 0.00 0.61 0.00 93 1011.1
20260510061558 9 0 0.0 0.0 0.00 0.61 0.00 93 1011.1
20260510061049 9 0 0.0 0.0 0.00 0.61 0.00 93 1011.1
20260510060552 9 0 0.0 0.0 0.00 0.61 0.00 93 1011.1
20260510060058 9 0 0.0 0.0 0.00 0.61 0.00 93 1011.3
20260510055549 9 0 0.0 0.0 0.00 0.61 0.00 93 1011.2
20260510055051 9 0 0.0 0.0 0.00 0.61 0.00 93 1011.3
20260510054552 9 0 0.0 0.0 0.00 0.61 0.00 93 1011.4
20260510054053 9 0 0.0 0.0 0.00 0.61 0.00 93 1011.4
20260510053549 9 0 0.0 0.0 0.00 0.61 0.00 93 1011.2
20260510053055 10 0 0.0 4.8 0.00 0.61 0.00 93 1011.4
20260510052552 10 0 1.6 4.8 0.00 0.61 0.00 93 1011.5
20260510052049 9 317 0.0 4.8 0.00 0.61 0.00 93 1011.5
20260510051604 8 316 1.6 4.8 0.00 0.61 0.00 93 1011.5
20260510051051 8 0 0.0 0.0 0.00 0.61 0.00 93 1011.6
20260510050551 9 0 0.0 0.0 0.00 0.61 0.00 93 1011.3
20260510050058 9 0 0.0 0.0 0.00 0.61 0.00 93 1011.1
20260510045549 9 0 0.0 0.0 0.00 0.61 0.00 93 1011.2
20260510045052 9 0 0.0 0.0 0.00 0.61 0.00 93 1011.1
20260510044557 9 0 0.0 0.0 0.00 0.61 0.00 93 1011.1
20260510044048 9 0 0.0 0.0 0.00 0.61 0.00 93 1011.1
20260510043551 9 0 0.0 0.0 0.00 0.61 0.00 93 1011.0
20260510043051 9 0 0.0 0.0 0.00 0.61 0.00 93 1011.0
20260510042549 9 0 0.0 0.0 0.00 0.61 0.00 93 1011.0
20260510042048 9 0 0.0 0.0 0.00 0.61 0.00 93 1011.0
20260510041555 9 0 0.0 0.0 0.00 0.61 0.00 93 1011.0
20260510041052 9 0 0.0 0.0 0.00 0.61 0.00 93 1011.1
20260510040548 9 0 0.0 0.0 0.00 0.61 0.00 93 1011.0
20260510040058 9 0 0.0 0.0 0.00 0.61 0.00 93 1010.9
20260510035552 9 0 0.0 0.0 0.00 0.61 0.61 93 1011.0
20260510035053 9 0 0.0 0.0 0.00 0.61 0.61 93 1011.0
20260510034613 9 0 0.0 0.0 0.00 0.61 0.61 93 1011.1
20260510034052 8 0 0.0 0.0 0.00 0.61 0.61 93 1011.1
20260510033553 8 0 0.0 0.0 0.00 0.61 0.61 93 1011.1
20260510033059 8 0 0.0 0.0 0.00 0.61 0.61 92 1011.0
20260510032548 8 0 0.0 0.0 0.00 0.61 0.61 93 1010.9
20260510032048 8 0 0.0 0.0 0.00 0.61 0.61 93 1010.8
20260510031554 8 0 0.0 0.0 0.00 0.61 0.61 92 1010.8
20260510031048 8 0 0.0 0.0 0.00 0.61 0.61 92 1010.8
20260510030551 8 0 0.0 0.0 0.00 0.61 0.61 92 1010.8
20260510030059 8 0 0.0 0.0 0.00 0.61 0.61 92 1010.7
20260510025548 8 0 0.0 0.0 0.00 0.61 0.61 92 1010.8
20260510025051 8 0 0.0 0.0 0.00 0.61 0.61 92 1010.9
20260510024558 8 0 0.0 0.0 0.00 0.61 0.61 92 1010.7
20260510024052 9 0 0.0 0.0 0.00 0.61 0.61 92 1010.9
20260510023552 9 0 0.0 0.0 0.00 0.61 0.61 92 1010.8
20260510023054 9 0 0.0 0.0 0.00 0.61 0.61 92 1010.7
20260510022554 9 0 0.0 0.0 0.00 0.61 0.61 92 1010.8
20260510022051 9 0 0.0 0.0 0.00 0.61 0.61 92 1010.7
20260510021601 9 0 0.0 3.2 0.00 0.61 0.61 91 1010.7
20260510021048 9 0 0.0 3.2 0.00 0.61 0.61 92 1010.7
20260510020554 9 180 0.0 1.6 0.00 0.61 0.61 91 1010.7
20260510020054 9 0 0.0 0.0 0.00 0.61 0.61 91 1010.6
20260510015551 10 0 0.0 0.0 0.00 0.61 0.61 92 1010.6
20260510015051 10 0 0.0 0.0 0.00 0.61 0.61 91 1010.6
20260510014558 10 0 0.0 0.0 0.00 0.61 0.61 92 1010.7
20260510014048 10 0 0.0 0.0 0.00 0.61 0.61 91 1010.6
20260510013554 10 0 0.0 0.0 0.00 0.61 0.61 91 1010.6
20260510013117 10 0 0.0 0.0 0.00 0.61 0.61 91 1010.7
20260510012551 10 0 0.0 0.0 0.00 0.61 0.61 91 1010.7
20260510012052 10 0 0.0 0.0 0.00 0.61 0.61 91 1010.6
20260510011558 10 0 0.0 0.0 0.00 0.61 0.61 91 1010.6
20260510011052 10 0 0.0 0.0 0.00 0.61 0.61 91 1010.3
20260510010549 10 0 0.0 0.0 0.00 0.61 0.61 91 1010.4
20260510010100 10 0 0.0 0.0 0.00 0.61 0.61 90 1010.3
20260510005549 10 0 0.0 0.0 0.00 0.61 0.61 90 1010.2
20260510005051 11 0 0.0 0.0 0.00 0.61 0.61 91 1010.2
20260510004555 10 0 0.0 0.0 0.00 0.61 0.61 90 1010.1
20260510004049 11 0 0.0 0.0 0.00 0.61 0.61 90 1010.0
20260510003549 11 0 0.0 0.0 0.00 0.61 0.61 90 1010.0
20260510003104 11 0 0.0 0.0 0.00 0.61 0.61 90 1009.9
20260510002548 11 0 0.0 0.0 0.00 0.61 0.61 89 1009.9
20260510002048 11 0 0.0 0.0 0.00 0.61 0.61 89 1009.9
20260510001559 11 0 0.0 3.2 0.00 0.61 0.61 89 1009.8
20260510001048 11 0 0.0 3.2 0.00 0.61 0.61 88 1009.9
20260510000552 11 180 0.0 4.8 0.00 0.61 0.61 87 1009.7
20260510000123 11 0 0.0 6.4 0.00 0.61 0.61 87 1009.7
20260509235552 12 179 3.2 6.4 0.00 0.61 0.61 86 1009.6
20260509235048 12 180 0.0 4.8 0.00 0.61 0.61 86 1009.6
20260509234554 12 0 0.0 3.2 0.00 0.61 0.61 85 1009.5
20260509234052 12 0 0.0 4.8 0.00 0.61 0.61 84 1009.5
20260509233548 12 180 0.0 4.8 0.00 0.61 0.61 84 1009.5
20260509233050 13 180 0.0 3.2 0.00 0.61 0.61 83 1009.5
20260509232553 13 0 0.0 0.0 0.00 0.61 0.61 82 1009.3
20260509232049 13 0 0.0 4.8 0.00 0.61 0.61 81 1009.2
20260509231556 13 0 0.0 8.0 0.00 0.61 0.61 81 1009.4
20260509231052 13 180 1.6 9.7 0.00 0.61 0.61 81 1009.3
20260509230548 13 186 4.8 9.7 0.00 0.61 0.61 80 1009.3
20260509230105 13 182 1.6 8.0 0.00 0.61 0.61 80 1009.3
20260509225550 13 248 1.6 8.0 0.00 0.61 0.61 79 1009.5
20260509225052 14 252 4.8 9.7 0.00 0.61 0.61 78 1009.5
20260509224553 14 250 4.8 9.7 0.00 0.61 0.61 78 1009.5
20260509224051 14 232 4.8 11.3 0.00 0.61 0.61 78 1009.4
20260509223553 14 227 4.8 11.3 0.00 0.61 0.61 79 1009.4
20260509223103 14 280 4.8 14.5 0.00 0.61 0.61 81 1009.5
20260509222552 14 219 6.4 14.5 0.00 0.61 0.61 82 1009.5
20260509222052 13 258 6.4 12.9 0.00 0.61 0.61 83 1009.5
20260509221612 13 208 4.8 12.9 0.00 0.61 0.61 80 1009.6
20260509221052 14 171 4.8 11.3 0.00 0.61 0.61 82 1009.6
20260509220552 13 171 3.2 9.7 0.00 0.61 0.61 85 1009.5
20260509220057 13 239 4.8 16.1 0.00 0.61 0.61 82 1009.5
20260509215549 13 231 6.4 16.1 0.00 0.61 0.61 82 1009.5
20260509215055 13 208 3.2 8.0 0.00 0.61 0.61 83 1009.6
20260509214604 13 290 1.6 14.5 0.00 0.61 0.61 82 1009.6
20260509214052 13 222 6.4 14.5 0.00 0.61 0.61 82 1009.8
20260509213552 13 253 3.2 9.7 0.00 0.61 0.61 83 1009.8
20260509213054 13 273 0.0 4.8 0.00 0.61 0.61 84 1009.8
20260509212549 13 202 0.0 8.0 0.00 0.61 0.61 84 1009.7
20260509212048 13 202 3.2 8.0 0.00 0.61 0.61 83 1009.7
20260509211551 13 175 3.2 11.3 0.00 0.61 0.61 87 1009.7
20260509211049 13 242 4.8 12.9 0.00 0.61 0.61 84 1009.6
20260509210549 13 204 6.4 12.9 0.00 0.61 0.61 83 1009.8
20260509210057 13 194 4.8 12.9 0.00 0.61 0.61 86 1009.8
20260509205552 13 189 6.4 14.5 0.00 0.61 0.61 84 1009.8
20260509205048 13 186 6.4 20.9 0.00 0.61 0.61 85 1009.8
20260509204552 13 223 11.3 20.9 0.00 0.61 0.61 83 1009.9
20260509204048 13 181 4.8 11.3 0.00 0.61 0.61 86 1009.9
20260509203552 13 195 3.2 12.9 0.00 0.61 0.61 87 1009.9
20260509203056 13 200 1.6 12.9 0.00 0.61 0.61 86 1009.9
20260509202548 13 264 3.2 12.9 0.00 0.61 0.61 87 1010.1
20260509202052 12 223 3.2 12.9 0.00 0.61 0.61 87 1010.2
20260509201556 12 243 4.8 12.9 0.00 0.61 0.61 87 1010.2
20260509201048 12 250 1.6 11.3 0.00 0.61 0.61 87 1010.4
20260509200552 12 202 3.2 9.7 0.00 0.61 0.61 88 1010.2
20260509200109 12 234 1.6 12.9 0.03 0.61 0.61 89 1010.3
20260509195551 12 178 4.8 12.9 0.03 0.61 0.61 87 1010.5
20260509195048 12 193 4.8 9.7 0.03 0.61 0.61 87 1010.6
20260509194558 12 255 4.8 9.7 0.05 0.61 0.61 88 1010.4
20260509194051 12 231 4.8 8.0 0.05 0.61 0.61 88 1010.4
20260509193551 12 198 1.6 6.4 0.08 0.61 0.61 90 1010.3
20260509193058 12 0 1.6 4.8 0.08 0.61 0.61 89 1010.6
20260509192552 11 0 0.0 3.2 0.08 0.61 0.61 90 1010.6
20260509192055 11 0 0.0 3.2 0.10 0.61 0.61 90 1010.6
20260509191554 11 0 0.0 1.6 0.10 0.61 0.61 90 1010.7
20260509191051 11 0 0.0 3.2 0.10 0.61 0.61 90 1010.9
20260509190552 11 0 0.0 6.4 0.13 0.61 0.61 90 1010.8
20260509190057 11 0 0.0 8.0 0.10 0.58 0.58 90 1011.0
20260509185553 11 182 1.6 8.0 0.13 0.58 0.58 90 1011.2
20260509185052 11 181 1.6 8.0 0.15 0.58 0.58 90 1011.1
20260509184556 11 178 1.6 6.4 0.13 0.56 0.56 90 1011.3
20260509184053 11 186 1.6 4.8 0.13 0.53 0.53 90 1011.4
20260509183553 11 187 1.6 4.8 0.15 0.53 0.53 90 1011.3
20260509183105 11 187 1.6 6.4 0.18 0.53 0.53 90 1011.3
20260509182552 11 195 0.0 6.4 0.20 0.53 0.53 90 1011.3
20260509182052 11 262 3.2 6.4 0.20 0.51 0.51 89 1011.3
20260509181558 11 0 1.6 8.0 0.20 0.51 0.51 90 1011.2
20260509181053 11 0 0.0 8.0 0.23 0.51 0.51 90 1011.3
20260509180555 11 244 3.2 6.4 0.23 0.48 0.48 89 1011.1
20260509180103 11 0 1.6 4.8 0.25 0.48 0.48 89 1011.3
20260509175553 11 217 0.0 4.8 0.25 0.46 0.46 89 1011.2
20260509175055 11 217 0.0 6.4 0.28 0.43 0.43 90 1011.2
20260509174553 11 217 1.6 6.4 0.30 0.43 0.43 89 1011.3
20260509174053 11 0 0.0 4.8 0.30 0.41 0.41 90 1011.4
20260509173553 11 0 0.0 6.4 0.30 0.38 0.38 89 1011.2
20260509173100 11 238 1.6 6.4 0.28 0.36 0.36 89 1011.4
20260509172553 11 242 0.0 4.8 0.28 0.33 0.33 89 1011.3
20260509172053 11 0 0.0 8.0 0.25 0.30 0.30 89 1011.3
20260509171556 11 244 3.2 8.0 0.28 0.30 0.30 88 1011.5
20260509171052 11 271 1.6 8.0 0.25 0.28 0.28 88 1011.5
20260509170554 11 296 1.6 14.5 0.23 0.25 0.25 88 1011.4
20260509170057 11 237 8.0 14.5 0.18 0.20 0.20 87 1011.7
20260509165554 11 227 4.8 9.7 0.18 0.20 0.20 88 1011.6
20260509165053 11 195 3.2 9.7 0.13 0.15 0.15 87 1011.5
20260509164555 11 200 3.2 11.3 0.10 0.13 0.13 87 1011.5
20260509164052 11 210 4.8 14.5 0.08 0.10 0.10 85 1011.7
20260509163552 12 261 8.0 14.5 0.05 0.08 0.08 85 1011.8
20260509163101 12 183 6.4 12.9 0.05 0.08 0.08 85 1011.7
20260509162552 12 179 6.4 12.9 0.03 0.05 0.05 83 1011.7
20260509162053 12 220 6.4 11.3 0.03 0.05 0.05 83 1011.7
20260509161600 12 198 4.8 12.9 0.00 0.03 0.03 83 1011.6
20260509161048 12 199 4.8 17.7 0.00 0.03 0.03 84 1011.7
20260509160550 12 231 9.7 17.7 0.00 0.03 0.03 83 1011.8
20260509160055 12 200 8.0 19.3 0.00 0.03 0.03 80 1011.7
20260509155551 12 201 6.4 19.3 0.00 0.03 0.03 81 1011.8
20260509155048 12 183 8.0 17.7 0.00 0.03 0.03 80 1011.6
20260509154554 12 187 3.2 17.7 0.00 0.03 0.03 80 1011.8
20260509154053 12 190 9.7 17.7 0.00 0.03 0.03 80 1011.8
20260509153550 12 198 8.0 17.7 0.00 0.03 0.03 82 1011.8
20260509153058 12 184 6.4 9.7 0.00 0.03 0.03 83 1011.9
20260509152549 12 159 4.8 9.7 0.00 0.03 0.03 81 1012.0
20260509152048 12 174 3.2 8.0 0.00 0.03 0.03 84 1012.1
20260509151557 12 202 1.6 8.0 0.00 0.03 0.03 85 1012.2
20260509151048 11 0 0.0 0.0 0.00 0.03 0.03 86 1011.8
20260509150551 11 0 0.0 0.0 0.00 0.03 0.03 87 1012.0
20260509150057 11 0 0.0 0.0 0.00 0.03 0.03 86 1011.7
20260509145549 11 0 0.0 0.0 0.00 0.03 0.03 86 1011.5
20260509145049 11 0 0.0 0.0 0.00 0.03 0.03 86 1011.4
20260509144559 11 0 0.0 0.0 0.00 0.03 0.03 86 1011.5
20260509144048 11 0 0.0 0.0 0.00 0.03 0.03 86 1011.4
20260509143549 11 0 0.0 0.0 0.00 0.03 0.03 87 1011.4
20260509143059 11 0 0.0 0.0 0.00 0.03 0.03 86 1011.4
20260509142548 11 0 0.0 0.0 0.00 0.03 0.03 86 1011.4
20260509142051 11 0 0.0 0.0 0.00 0.03 0.03 87 1011.5
20260509141600 11 0 0.0 0.0 0.03 0.03 0.03 87 1011.6
20260509141048 11 0 0.0 0.0 0.03 0.03 0.03 86 1011.7
20260509140548 11 0 0.0 0.0 0.03 0.03 0.03 84 1011.7
20260509140105 11 0 0.0 0.0 0.03 0.03 0.03 85 1011.7
20260509135549 11 0 0.0 0.0 0.03 0.03 0.03 86 1011.7
20260509135050 11 0 0.0 0.0 0.03 0.03 0.03 85 1011.7
20260509134557 11 0 0.0 0.0 0.03 0.03 0.03 86 1011.9
20260509134049 11 0 0.0 0.0 0.03 0.03 0.03 86 1011.7
20260509133549 11 0 0.0 3.2 0.03 0.03 0.03 86 1011.6
20260509133056 11 0 0.0 3.2 0.03 0.03 0.03 85 1011.5
20260509132553 11 0 0.0 1.6 0.03 0.03 0.03 85 1011.4